N1VFU Weather Reports


Display with metric or nautical units.
time (UTC)temp
F
wind
direction
speed
MPH
gust
MPH
rain 1hr
in
rain 24hr
in
rain mn
in
humidity
%
barometer
mb
20210731070217 50 236 0.0 0.0 0.00 0.02 0.00 93 1015.1
20210731065713 50 236 0.0 0.0 0.00 0.02 0.00 92 1015.1
20210731065211 51 236 0.0 0.0 0.00 0.02 0.00 92 1015.1
20210731064713 51 236 0.0 0.0 0.00 0.02 0.00 91 1015.1
20210731064212 51 236 0.0 0.0 0.00 0.02 0.00 91 1015.1
20210731063710 52 236 0.0 0.0 0.00 0.02 0.00 90 1015.1
20210731063212 52 236 0.0 1.0 0.00 0.02 0.00 89 1015.1
20210731062710 53 236 0.0 2.0 0.00 0.02 0.00 88 1015.2
20210731062212 53 236 0.0 2.0 0.00 0.02 0.00 87 1015.0
20210731061710 53 205 0.0 3.0 0.00 0.02 0.00 86 1015.1
20210731061211 53 230 1.0 4.0 0.00 0.02 0.00 86 1015.1
20210731060708 52 218 1.0 4.0 0.00 0.02 0.00 88 1015.1
20210731060209 52 226 1.0 2.0 0.00 0.02 0.00 89 1015.3
20210731055727 52 193 0.0 0.0 0.00 0.02 0.00 90 1015.3
20210731055209 52 214 0.0 0.0 0.00 0.02 0.00 91 1015.4
20210731054727 52 208 0.0 0.0 0.00 0.02 0.00 91 1015.2
20210731054212 52 215 0.0 0.0 0.00 0.02 0.00 90 1015.3
20210731053710 53 217 0.0 0.0 0.00 0.02 0.00 90 1015.2
20210731053212 53 215 0.0 0.0 0.00 0.02 0.00 90 1015.2
20210731052209 54 211 0.0 0.0 0.00 0.02 0.00 89 1015.1
20210731051726 54 211 0.0 0.0 0.00 0.02 0.00 90 1015.1
20210731051228 54 211 0.0 0.0 0.00 0.02 0.00 90 1015.1
20210731050726 54 211 0.0 0.0 0.00 0.02 0.00 89 1015.1
20210731050228 54 211 0.0 0.0 0.00 0.02 0.00 89 1015.3
20210731045725 54 219 0.0 0.0 0.00 0.02 0.00 88 1015.4
20210731045226 54 219 0.0 0.0 0.00 0.02 0.00 89 1015.5
20210731044722 54 221 0.0 2.0 0.00 0.02 0.00 89 1015.7
20210731044223 54 221 0.0 2.0 0.00 0.02 0.00 89 1015.5
20210731043721 54 229 0.0 2.0 0.00 0.02 0.00 89 1015.8
20210731043227 54 218 0.0 2.0 0.00 0.02 0.00 90 1015.7
20210731042725 54 234 0.0 2.0 0.00 0.03 0.00 90 1015.8
20210731042228 54 207 0.0 2.0 0.00 0.03 0.00 90 1015.8
20210731041723 53 219 1.0 2.0 0.00 0.03 0.00 92 1015.8
20210731041224 53 233 0.0 3.0 0.00 0.03 0.00 92 1015.7
20210731040720 53 210 0.0 3.0 0.00 0.03 0.00 93 1015.6
20210731040222 52 205 0.0 0.0 0.00 0.03 0.00 93 1015.7
20210731035719 52 226 0.0 0.0 0.00 0.03 0.00 94 1015.6
20210731035216 52 225 0.0 0.0 0.00 0.03 0.00 94 1015.7
20210731034712 52 225 0.0 0.0 0.00 0.03 0.00 95 1015.7
20210731034211 51 226 0.0 0.0 0.00 0.03 0.00 95 1015.7
20210731033728 51 191 0.0 0.0 0.00 0.03 0.00 95 1015.6
20210731033209 51 214 0.0 0.0 0.00 0.03 0.00 95 1015.6
20210731032710 51 193 0.0 0.0 0.00 0.08 0.00 94 1015.6
20210731032212 51 196 0.0 0.0 0.00 0.08 0.00 94 1015.5
20210731031716 51 209 0.0 0.0 0.00 0.08 0.00 94 1015.6
20210731031216 51 209 0.0 0.0 0.00 0.08 0.00 93 1015.7
20210731030712 51 209 0.0 3.0 0.00 0.08 0.00 93 1015.8
20210731030213 51 223 0.0 3.0 0.00 0.08 0.00 93 1015.8
20210731025710 51 159 0.0 0.0 0.00 0.08 0.00 94 1015.6
20210731025212 51 231 0.0 0.0 0.00 0.08 0.00 93 1015.6
20210731024727 52 237 0.0 0.0 0.00 0.08 0.00 93 1015.5
20210731024226 52 314 0.0 0.0 0.00 0.08 0.00 93 1015.4
20210731023721 52 314 0.0 0.0 0.00 0.08 0.00 93 1015.4
20210731023222 52 314 0.0 0.0 0.00 0.08 0.00 92 1015.5
20210731022719 52 233 0.0 0.0 0.00 0.09 0.00 92 1015.4
20210731022217 53 233 0.0 0.0 0.00 0.09 0.00 92 1015.5
20210731021718 53 233 0.0 0.0 0.00 0.09 0.00 91 1015.5
20210731021217 53 233 0.0 0.0 0.00 0.09 0.00 91 1015.4
20210731020730 53 228 0.0 0.0 0.00 0.09 0.00 91 1015.4
20210731020231 53 217 0.0 2.0 0.00 0.09 0.00 91 1015.4
20210731015711 53 203 0.0 2.0 0.00 0.09 0.00 91 1015.4
20210731015212 53 214 0.0 0.0 0.00 0.09 0.00 91 1015.4
20210731014724 53 232 0.0 0.0 0.00 0.09 0.00 90 1015.3
20210731014223 54 217 0.0 0.0 0.00 0.09 0.00 90 1015.3
20210731013720 54 205 0.0 0.0 0.00 0.09 0.00 90 1015.1
20210731013221 54 195 0.0 0.0 0.00 0.09 0.00 89 1014.9
20210731012717 55 59 0.0 0.0 0.00 0.42 0.00 88 1014.9
20210731012216 55 58 0.0 0.0 0.00 0.42 0.00 87 1014.9
20210731011709 56 58 0.0 0.0 0.00 0.42 0.00 87 1014.8
20210731011228 56 87 0.0 3.0 0.00 0.42 0.00 85 1014.8
20210731010724 56 86 0.0 3.0 0.00 0.42 0.00 84 1014.8
20210731010222 57 230 0.0 2.0 0.00 0.42 0.00 82 1014.7
20210731005716 57 230 1.0 3.0 0.00 0.42 0.00 82 1014.6
20210731005216 58 169 1.0 5.0 0.00 0.42 0.00 80 1014.6
20210731004726 58 188 1.0 5.0 0.00 0.42 0.00 80 1014.4
20210731004225 58 233 0.0 3.0 0.00 0.42 0.00 81 1014.4
20210731003722 59 19 1.0 4.0 0.00 0.42 0.00 77 1014.2
20210731003220 59 233 1.0 6.0 0.00 0.42 0.00 76 1014.2
20210731002721 59 177 2.0 6.0 0.00 0.76 0.00 75 1014.2
20210731002223 59 241 0.0 4.0 0.00 0.76 0.00 77 1014.0
20210731001719 59 164 1.0 4.0 0.00 0.76 0.00 80 1014.0
20210731001218 59 221 0.0 0.0 0.00 0.76 0.00 81 1013.9
20210731000724 60 226 0.0 0.0 0.00 0.76 0.00 79 1013.8
20210731000226 61 233 0.0 0.0 0.00 0.76 0.00 75 1013.8
20210730235722 63 304 0.0 1.0 0.00 0.76 0.00 71 1013.7
20210730235223 64 304 0.0 3.0 0.00 0.76 0.00 66 1013.7
20210730234721 64 228 1.0 5.0 0.00 0.76 0.00 61 1013.8
20210730234220 65 281 2.0 8.0 0.00 0.76 0.00 57 1013.9
20210730233714 65 342 2.0 10.0 0.00 0.76 0.00 57 1013.9
20210730233214 65 229 1.0 10.0 0.00 0.76 0.00 55 1013.7
20210730232709 65 278 2.0 10.0 0.00 1.21 0.00 55 1013.5
20210730232211 66 245 4.0 10.0 0.00 1.21 0.00 54 1013.9
20210730231713 66 286 2.0 13.0 0.00 1.21 0.00 54 1013.5
20210730231212 66 274 2.0 13.0 0.00 1.21 0.00 55 1013.5
20210730230728 67 75 1.0 10.0 0.00 1.21 0.00 55 1013.3
20210730230228 67 321 4.0 10.0 0.00 1.21 0.00 54 1013.2
20210730225725 68 360 3.0 11.0 0.00 1.21 0.00 54 1013.2
20210730225224 68 293 5.0 11.0 0.00 1.21 0.00 54 1013.3
20210730224720 69 326 0.0 6.0 0.00 1.21 0.00 55 1012.8
20210730224220 69 302 2.0 6.0 0.00 1.21 0.00 52 1012.7
20210730223716 70 268 2.0 9.0 0.00 1.21 0.00 53 1012.7
20210730223216 70 269 4.0 9.0 0.00 1.21 0.00 51 1012.5
20210730222710 71 301 3.0 7.0 0.00 1.30 1.21 51 1012.2
20210730222211 71 267 2.0 5.0 0.00 1.30 1.21 55 1012.2
20210730221727 71 311 1.0 13.0 0.00 1.30 1.21 57 1012.2
20210730221227 70 330 3.0 13.0 0.00 1.30 1.21 54 1012.3
20210730220721 71 316 2.0 9.0 0.00 1.30 1.21 57 1012.1
20210730220222 70 293 3.0 9.0 0.00 1.30 1.21 57 1012.1
20210730215718 70 203 3.0 7.0 0.00 1.30 1.21 60 1011.9
20210730215220 70 205 2.0 7.0 0.00 1.30 1.21 60 1011.8
20210730214717 70 269 2.0 6.0 0.00 1.30 1.21 60 1011.8
20210730214217 70 240 0.0 4.0 0.00 1.30 1.21 62 1011.7
20210730213711 70 290 2.0 4.0 0.00 1.30 1.21 61 1011.7
20210730213211 70 350 1.0 5.0 0.00 1.30 1.21 66 1011.6
20210730212724 70 299 2.0 8.0 0.00 1.41 1.21 60 1011.7
20210730212222 70 306 2.0 7.0 0.00 1.41 1.21 62 1011.4
20210730211719 70 298 3.0 7.0 0.00 1.41 1.21 62 1011.6
20210730211218 70 292 3.0 7.0 0.00 1.41 1.21 65 1011.6
20210730210714 70 56 1.0 6.0 0.00 1.41 1.21 65 1011.6
20210730210212 70 37 3.0 11.0 0.00 1.41 1.21 63 1011.7
20210730205710 70 58 4.0 11.0 0.00 1.41 1.21 61 1011.8
20210730205216 71 253 2.0 10.0 0.00 1.41 1.21 61 1011.7
20210730204729 70 259 2.0 10.0 0.00 1.41 1.21 60 1011.7
20210730204230 70 204 2.0 8.0 0.00 1.41 1.21 64 1011.8
20210730203808 69 238 2.0 7.0 0.00 1.41 1.21 64 1011.7
20210730203223 68 275 0.0 7.0 0.00 1.41 1.21 67 1011.6
20210730202722 68 33 2.0 9.0 0.00 1.99 1.21 66 1011.6
20210730202222 68 360 1.0 7.0 0.00 1.99 1.21 66 1011.4
20210730201720 68 250 1.0 7.0 0.00 1.99 1.21 67 1011.8
20210730201221 68 316 3.0 6.0 0.00 1.99 1.21 67 1011.7
20210730200716 68 39 2.0 10.0 0.00 1.99 1.21 68 1011.8
20210730200215 68 86 1.0 10.0 0.00 1.99 1.21 68 1011.8
20210730195712 69 358 3.0 7.0 0.00 1.99 1.21 64 1011.8
20210730195213 69 182 1.0 6.0 0.00 1.99 1.21 66 1011.4
20210730194709 70 304 1.0 6.0 0.00 1.99 1.21 64 1011.3
20210730194210 70 248 2.0 10.0 0.00 1.99 1.21 64 1011.4
20210730193724 70 269 0.0 10.0 0.00 1.99 1.21 65 1011.2
20210730193221 71 259 3.0 8.0 0.00 1.99 1.21 62 1011.1
20210730192718 71 316 2.0 8.0 0.00 2.00 1.21 64 1011.0
20210730192218 71 206 5.0 10.0 0.00 2.00 1.21 65 1010.9
20210730191214 70 60 3.0 9.0 0.00 2.00 1.21 65 1011.0
20210730190728 69 157 1.0 3.0 0.00 2.00 1.21 71 1010.9
20210730190228 68 37 0.0 10.0 0.00 2.00 1.21 68 1011.3
20210730185725 68 282 3.0 10.0 0.00 2.00 1.21 67 1010.9
20210730185227 68 316 2.0 6.0 0.00 2.00 1.21 68 1011.2
20210730184724 68 61 1.0 8.0 0.00 2.00 1.21 68 1011.2
20210730184223 69 330 1.0 7.0 0.00 2.00 1.21 68 1011.2
20210730183719 69 29 2.0 8.0 0.00 2.00 1.21 70 1011.1
20210730183219 69 226 4.0 8.0 0.00 2.00 1.21 69 1011.0
20210730182715 70 326 3.0 8.0 0.00 2.00 1.21 67 1010.8
20210730182217 70 45 3.0 9.0 0.00 2.00 1.21 69 1010.9
20210730181715 70 330 1.0 9.0 0.00 2.00 1.21 71 1010.8
20210730181216 70 274 5.0 9.0 0.00 2.00 1.21 70 1011.0
20210730180719 70 292 3.0 8.0 0.00 2.00 1.21 68 1010.6
20210730180224 71 245 4.0 9.0 0.00 2.00 1.21 69 1010.7
20210730175726 71 278 2.0 9.0 0.00 2.00 1.21 66 1010.5
20210730175228 72 261 2.0 11.0 0.00 2.00 1.21 71 1010.5
20210730174725 72 32 4.0 11.0 0.00 2.00 1.21 68 1010.5
20210730174227 72 236 3.0 10.0 0.00 2.00 1.21 70 1010.4
20210730173724 72 219 4.0 10.0 0.00 2.00 1.21 65 1010.6
20210730173225 72 344 4.0 9.0 0.00 2.00 1.21 66 1010.3
20210730172723 72 273 2.0 8.0 0.00 2.00 1.21 67 1010.6
20210730172225 72 238 3.0 9.0 0.00 2.00 1.21 69 1010.2
20210730171722 72 309 3.0 9.0 0.00 2.00 1.21 68 1010.2
20210730170725 70 310 2.0 9.0 0.00 2.00 1.21 71 1010.1
20210730170223 71 274 3.0 9.0 0.00 2.00 1.21 71 1010.0
20210730165723 71 334 1.0 7.0 0.00 2.00 1.21 70 1010.0
20210730165224 71 330 2.0 7.0 0.01 2.00 1.21 72 1010.2
20210730164721 71 228 2.0 7.0 0.01 2.00 1.21 74 1009.9
20210730164221 71 303 2.0 7.0 0.01 2.00 1.21 74 1010.1
20210730163716 70 335 1.0 6.0 0.01 2.00 1.21 75 1010.0
20210730163219 70 237 3.0 5.0 0.01 2.00 1.21 77 1010.1
20210730162713 70 211 2.0 8.0 0.01 2.00 1.21 77 1009.8
20210730162215 70 186 3.0 5.0 0.01 2.00 1.21 79 1009.7
20210730161729 70 239 1.0 3.0 0.01 2.00 1.21 84 1009.6
20210730161228 70 227 0.0 3.0 0.01 2.00 1.21 85 1009.6
20210730160812 70 234 1.0 6.0 0.01 2.00 1.21 83 1009.5
20210730160229 70 219 3.0 6.0 0.01 2.00 1.21 80 1009.7
20210730155725 70 54 1.0 5.0 0.02 2.00 1.21 83 1009.6
20210730155225 70 269 1.0 5.0 0.01 1.99 1.20 82 1009.7
20210730154722 69 173 1.0 5.0 0.01 1.99 1.20 84 1009.7
20210730154222 69 250 2.0 5.0 0.01 1.99 1.20 82 1009.8
20210730153718 69 279 1.0 4.0 0.01 1.99 1.20 83 1009.8
20210730153218 69 313 0.0 4.0 0.01 1.99 1.20 84 1009.7
20210730152717 69 335 1.0 6.0 0.01 1.99 1.20 84 1009.5
20210730152218 69 251 3.0 5.0 0.01 1.99 1.20 81 1009.5
20210730151713 69 346 1.0 4.0 0.01 1.99 1.20 86 1009.5
20210730151215 68 30 1.0 4.0 0.01 1.99 1.20 86 1009.4
20210730150712 69 44 2.0 6.0 0.01 1.99 1.20 83 1009.4
20210730150211 70 326 3.0 6.0 0.01 1.99 1.20 77 1009.4
20210730145727 71 334 1.0 4.0 0.00 1.98 1.19 80 1009.1
20210730145229 71 269 2.0 5.0 0.00 1.98 1.19 77 1008.9
20210730144725 72 212 3.0 5.0 0.00 1.98 1.19 75 1008.8
20210730144225 72 213 0.0 2.0 0.00 1.98 1.19 77 1008.9
20210730143721 71 314 1.0 4.0 0.00 1.98 1.19 79 1009.0
20210730143220 70 167 0.0 5.0 0.00 1.98 1.19 81 1009.0
20210730142727 70 238 0.0 5.0 0.00 1.98 1.19 79 1008.8
20210730142228 70 189 1.0 4.0 0.00 1.98 1.19 80 1009.1
20210730141709 70 202 1.0 4.0 0.00 1.98 1.19 79 1009.0
20210730141210 70 242 0.0 3.0 0.00 1.98 1.19 80 1009.0
20210730140728 70 284 2.0 3.0 0.00 1.98 1.19 80 1008.9
20210730140227 70 276 1.0 3.0 0.00 1.98 1.19 81 1009.0
20210730135722 70 301 0.0 3.0 0.00 1.98 1.19 79 1008.9
20210730135224 70 328 2.0 4.0 0.00 1.98 1.19 80 1008.8
20210730134722 69 205 1.0 4.0 0.00 1.98 1.19 80 1008.7
20210730134224 69 281 2.0 4.0 0.00 1.98 1.19 80 1008.7
20210730133720 68 323 1.0 4.0 0.00 1.98 1.19 84 1008.9
20210730133221 68 288 1.0 5.0 0.00 1.98 1.19 84 1008.7
20210730132715 68 250 2.0 3.0 0.00 1.98 1.19 85 1008.8
20210730132215 67 326 0.0 3.0 0.00 1.98 1.19 87 1008.6
20210730131711 67 247 1.0 4.0 0.00 1.98 1.19 85 1008.6
20210730131212 67 345 0.0 4.0 0.00 1.98 1.19 87 1008.6
20210730130727 67 245 0.0 3.0 0.00 1.98 1.19 87 1008.7
20210730130226 67 274 1.0 3.0 0.00 1.98 1.19 86 1008.7
20210730125718 67 235 0.0 4.0 0.00 1.98 1.19 88 1008.6
20210730125218 67 237 1.0 4.0 0.00 1.98 1.19 90 1008.6
20210730124714 66 333 2.0 5.0 0.00 1.98 1.19 92 1008.7
20210730124216 66 226 0.0 0.0 0.00 1.98 1.19 94 1008.6
20210730123712 65 240 0.0 0.0 0.00 1.98 1.19 96 1008.6
20210730123214 64 240 0.0 0.0 0.00 1.98 1.19 95 1008.6
20210730122710 64 240 0.0 0.0 0.00 1.98 1.19 96 1008.5
20210730122210 64 240 0.0 0.0 0.00 1.98 1.19 96 1008.3
20210730121727 64 240 0.0 0.0 0.00 1.98 1.19 96 1008.2
20210730121228 64 240 0.0 0.0 0.00 1.98 1.19 96 1008.3
20210730120725 64 240 0.0 0.0 0.00 1.98 1.19 96 1008.3
20210730120224 64 240 0.0 0.0 0.00 1.98 1.19 97 1008.1
20210730115715 64 240 0.0 0.0 0.00 1.98 1.19 96 1008.1
20210730115219 64 241 0.0 0.0 0.00 1.98 1.19 97 1008.1
20210730114716 64 232 0.0 0.0 0.00 1.98 1.19 97 1008.0
20210730114217 64 232 0.0 0.0 0.00 1.98 1.19 97 1008.2
20210730113715 64 262 0.0 0.0 0.00 1.98 1.19 97 1008.0
20210730113216 63 72 0.0 0.0 0.00 1.98 1.19 97 1007.9
20210730112729 63 231 0.0 0.0 0.00 1.98 1.19 97 1008.5
20210730112229 63 240 0.0 0.0 0.00 1.98 1.19 97 1007.9
20210730111725 63 227 0.0 0.0 0.00 1.98 1.19 97 1007.7
20210730111224 63 226 0.0 0.0 0.00 1.98 1.19 97 1008.2
20210730110717 63 227 0.0 0.0 0.00 1.98 1.19 97 1008.4
20210730110217 63 227 0.0 0.0 0.00 1.98 1.19 97 1008.3
20210730105712 63 227 0.0 0.0 0.00 1.98 1.19 97 1008.3
20210730105213 62 227 0.0 0.0 0.00 1.98 1.19 97 1008.2
20210730104729 62 227 0.0 0.0 0.00 1.98 1.19 97 1007.9
20210730104213 62 227 0.0 0.0 0.00 1.98 1.19 97 1008.0
20210730103727 62 227 0.0 0.0 0.00 1.98 1.19 97 1008.0
20210730103230 61 227 0.0 0.0 0.00 1.98 1.19 97 1008.0
20210730102814 61 226 0.0 0.0 0.00 1.98 1.19 97 1008.1
20210730102215 61 227 0.0 0.0 0.00 1.98 1.19 97 1008.0
20210730101712 61 226 0.0 0.0 0.00 1.98 1.19 97 1008.0
20210730101212 61 226 0.0 0.0 0.00 1.98 1.19 97 1008.0
20210730100728 61 226 0.0 0.0 0.00 1.98 1.19 97 1007.9
20210730100210 61 227 0.0 0.0 0.00 1.98 1.19 97 1007.9
20210730095728 61 226 0.0 0.0 0.00 1.98 1.19 97 1007.9
20210730095210 61 242 0.0 0.0 0.00 1.98 1.19 97 1007.9
20210730094728 61 242 0.0 0.0 0.00 1.98 1.19 97 1007.7
20210730094209 61 242 0.0 0.0 0.00 1.98 1.19 96 1007.7
20210730093726 61 242 0.0 0.0 0.00 1.98 1.19 96 1007.6
20210730093226 61 242 0.0 0.0 0.00 1.98 1.19 96 1007.6
20210730092724 62 242 0.0 0.0 0.00 1.98 1.19 96 1007.5
20210730092226 62 242 0.0 0.0 0.00 1.98 1.19 96 1007.5
20210730091724 62 242 0.0 0.0 0.00 1.98 1.19 96 1007.5
20210730091209 62 242 0.0 0.0 0.00 1.98 1.19 96 1007.3
20210730090727 62 242 0.0 0.0 0.00 1.98 1.19 97 1007.4
20210730090228 62 242 0.0 0.0 0.00 1.98 1.19 97 1007.5
20210730085726 63 242 0.0 0.0 0.00 1.98 1.19 97 1007.5
20210730085227 63 267 0.0 0.0 0.00 1.98 1.19 97 1007.5
20210730084725 63 266 0.0 0.0 0.00 1.98 1.19 97 1007.4
20210730084227 63 253 0.0 0.0 0.00 1.98 1.19 97 1007.5
20210730083724 63 253 0.0 0.0 0.00 1.98 1.19 97 1007.6
20210730083225 63 253 0.0 0.0 0.00 1.98 1.19 97 1007.5
20210730082721 63 253 0.0 0.0 0.00 1.98 1.19 97 1007.4
20210730082222 63 265 0.0 0.0 0.00 1.98 1.19 97 1007.2
20210730081720 63 265 0.0 0.0 0.00 1.98 1.19 97 1007.2
20210730081222 63 265 0.0 0.0 0.00 1.98 1.19 97 1007.3
20210730080724 63 265 0.0 0.0 0.00 1.98 1.19 97 1007.3
20210730075715 63 265 0.0 0.0 0.00 1.98 1.19 97 1007.3
20210730075216 63 265 0.0 0.0 0.00 1.98 1.19 96 1007.2
20210730074714 63 265 0.0 0.0 0.00 1.98 1.19 96 1007.1
20210730074216 63 265 0.0 0.0 0.00 1.98 1.19 97 1007.1
20210730073714 63 265 0.0 0.0 0.00 1.98 1.19 97 1007.1
20210730073216 63 265 0.0 0.0 0.00 1.98 1.19 97 1007.1
20210730072713 63 265 0.0 0.0 0.00 1.98 1.19 96 1007.1
20210730072226 63 265 0.0 0.0 0.00 1.98 1.19 96 1007.3
20210730071722 63 265 0.0 0.0 0.00 1.98 1.19 96 1007.3
20210730071224 63 265 0.0 0.0 0.00 1.98 1.19 96 1007.1